Location: Quaker Farms
(41.4276°N, 73.1557°W)
Time: 09:58:01
(UTC+00:00)

Vanguard 2 Rocket - Visible Passes

Search period start: 15 June 2021 00:00
Search period end: 25 June 2021 00:00
Orbit: 554 x 3325 km, 32.9° (Epoch: 14 June)

Date Brightness Start Highest point End Pass type
(mag) Time Alt. Az. Time Alt. Az. Time Alt. Az.
15 Jun 9.5 00:33:25 10° SW 00:50:25 41° SSE 01:02:04 10° E visible
15 Jun 8.6 02:50:11 10° WSW 03:06:03 55° S 03:15:18 10° ESE visible
15 Jun 7.9 05:08:39 10° W 05:20:17 46° SSW 05:21:28 44° S visible
16 Jun 9.0 01:47:50 10° WSW 02:05:11 54° S 02:15:55 10° E visible
16 Jun 8.3 04:06:11 10° W 04:20:14 54° S 04:24:45 31° SE visible
16 Jun 8.8 06:24:54 10° W 06:30:30 24° WSW 06:30:30 24° WSW visible
17 Jun 9.4 00:45:48 10° SW 01:03:59 50° SSE 01:16:13 10° E visible
17 Jun 8.6 03:03:33 10° WSW 03:19:46 58° S 03:28:00 16° ESE visible
17 Jun 8.2 05:22:26 10° W 05:33:45 40° SSW 05:33:46 40° SSW visible
18 Jun 8.9 02:00:58 10° WSW 02:18:52 59° S 02:29:51 10° E visible
18 Jun 8.3 04:19:49 10° W 04:33:49 50° SSW 04:36:59 39° SSE visible
18 Jun 9.3 06:39:19 10° W 06:42:44 17° WSW 06:42:44 17° WSW visible
19 Jun 9.3 00:58:39 10° WSW 01:17:34 57° S 01:30:11 10° E visible
19 Jun 8.6 03:17:04 10° W 03:33:24 57° S 03:40:12 24° ESE visible
19 Jun 8.7 05:36:22 10° W 05:45:57 31° SW 05:45:57 31° SW visible
20 Jun 9.0 02:14:21 10° WSW 02:32:31 61° S 02:43:24 11° ESE visible
20 Jun 8.4 04:33:33 10° W 04:47:14 43° SSW 04:49:09 40° S visible
20 Jun 9.8 06:54:44 10° WSW 06:54:54 10° WSW 06:54:54 10° WSW visible
21 Jun 9.3 01:11:51 10° WSW 01:31:10 62° S 01:44:04 10° E visible
21 Jun 8.7 03:30:41 10° W 03:46:56 53° SSW 03:52:21 32° SE visible
21 Jun 9.2 05:50:40 10° W 05:58:05 23° WSW 05:58:05 23° WSW visible
22 Jun 9.0 02:27:53 10° W 02:46:07 60° S 02:55:32 18° ESE visible
22 Jun 8.8 04:47:26 10° W 05:00:25 36° SW 05:01:17 35° SSW visible
23 Jun 9.3 01:25:16 10° WSW 01:44:46 63° S 01:57:52 10° ESE visible
23 Jun 8.7 03:44:24 10° W 04:00:17 47° SSW 04:04:27 36° SSE visible
23 Jun 9.7 06:05:42 10° W 06:10:12 16° WSW 06:10:12 16° WSW visible
24 Jun 9.1 02:41:30 10° W 02:59:34 56° SSW 03:07:38 25° SE visible
24 Jun 9.2 05:01:38 10° W 05:13:21 28° SW 05:13:23 28° SW visible
